Details for Transavia (France) at LFPO




Go Back


Latest METAR
Local Time

LFPO 180600Z 28004KT 250V330 CAVOK 14/12 Q1024 NOSIG
18/08/2018, 08:29:22

Description
Results
Transavia (France) Logo
Number of Pilots based at LFPO
0 Pilots Based here
Number of Transavia (France) Flights Departed from LFPO
6 Flights Departed
Number of Transavia (France) Flights Arrived at LFPO
5 Flights Arrived
Number of Transavia (France) Schedules Departing from LFPO
166 Schedules
Number of Transavia (France) Schedules Arriving at LFPO
175 Schedules
Number of Transavia (France) Schedules Departing from LFPO availible today
49 Schedules Today
Number of Transavia (France) Schedules Arriving at LFPO availible today
51 Schedules Today
Average Landing Rate at LFPO
-216 fpm
Transavia (France) Average Landing Rate at LFPO
-103 fpm
Total Fuel Purchased at LFPO by Transavia (France)
25,515.02 kgs / 56,250.41 lbs

Pilots Based at LFPO


Pilot ID
Pilot Name
Pilot Rank
No. of Flights
No. of Flying Hours
There are no pilots assigned to this hub!   Will you be the first?
Content